OK2PAT-12 Weather Reports


time (UTC)temp
F
wind
direction
speed
knots
gust
knots
rain 1hr
in
rain 24hr
in
rain mn
in
humidity
%
barometer
mb
20260506205718 65 0.0 0.0 0.00 0.00 0.00 55 1007.3
20260506204718 65 0.0 0.0 0.00 0.00 0.00 55 1007.2
20260506203718 65 0.0 0.0 0.00 0.00 0.00 55 1007.2
20260506202718 65 0.0 0.0 0.00 0.00 0.00 55 1007.2
20260506201718 65 0.0 0.0 0.00 0.00 0.00 55 1007.1
20260506200717 65 0.0 0.0 0.00 0.00 0.00 55 1007.0
20260506195718 65 0.0 0.0 0.00 0.00 0.00 56 1007.0
20260506194718 65 0.0 0.0 0.00 0.00 0.00 56 1007.0
20260506193717 65 0.0 0.0 0.00 0.00 0.00 56 1007.0
20260506192718 65 0.0 0.0 0.00 0.00 0.00 55 1007.0
20260506191717 65 0.0 0.0 0.00 0.00 0.00 55 1006.9
20260506190717 66 0.0 0.0 0.00 0.00 0.00 55 1006.7
20260506185717 66 0.0 0.0 0.00 0.00 0.00 55 1006.5
20260506184718 66 0.0 0.0 0.00 0.00 0.00 54 1006.4
20260506183443 67 0.0 0.0 0.00 0.00 0.00 53 1006.3
20260506182443 67 0.0 0.0 0.00 0.00 0.00 52 1006.3
20260506181443 68 0.0 0.0 0.00 0.00 0.00 52 1006.3
20260506175700 69 0.0 0.0 0.00 0.00 0.00 50 1006.3
20260506174700 70 0.0 0.0 0.00 0.00 0.00 49 1006.4
20260506173700 71 0.0 0.0 0.00 0.00 0.00 48 1006.5
20260506172700 71 0.0 0.0 0.00 0.00 0.00 47 1006.5
20260506171700 72 0.0 0.0 0.00 0.00 0.00 46 1006.6
20260506170700 72 0.0 0.0 0.00 0.00 0.00 45 1006.6
20260506165700 73 0.0 0.0 0.00 0.00 0.00 46 1006.6
20260506164700 73 0.0 0.0 0.00 0.00 0.00 46 1006.6
20260506163700 73 0.0 0.0 0.00 0.00 0.00 45 1006.6
20260506162659 74 0.0 0.0 0.00 0.00 0.00 45 1006.8
20260506161659 74 0.0 0.0 0.00 0.00 0.00 45 1006.9
20260506160659 73 0.0 0.0 0.00 0.00 0.00 46 1007.1
20260506155659 73 0.0 0.0 0.00 0.00 0.00 46 1007.3
20260506154659 73 0.0 0.0 0.00 0.00 0.00 45 1007.4
20260506153659 74 0.0 0.0 0.00 0.00 0.00 45 1007.3
20260506152659 75 0.0 0.0 0.00 0.00 0.00 44 1007.4
20260506151659 75 0.0 0.0 0.00 0.00 0.00 43 1007.5
20260506150659 75 0.0 0.0 0.00 0.00 0.00 43 1007.6
20260506145700 75 0.0 0.0 0.00 0.00 0.00 41 1007.7
20260506144659 77 0.0 0.0 0.00 0.00 0.00 40 1007.8
20260506143659 78 0.0 0.0 0.00 0.00 0.00 39 1007.8
20260506142659 78 0.0 0.0 0.00 0.00 0.00 40 1007.8
20260506141659 82 0.0 0.0 0.00 0.00 0.00 40 1007.9
20260506140659 78 0.0 0.0 0.00 0.00 0.00 40 1008.0
20260506135659 77 0.0 0.0 0.00 0.00 0.00 40 1008.1
20260506134659 77 0.0 0.0 0.00 0.00 0.00 40 1008.2
20260506133659 77 0.0 0.0 0.00 0.00 0.00 39 1008.2
20260506132659 77 0.0 0.0 0.00 0.00 0.00 38 1008.2
20260506131659 78 0.0 0.0 0.00 0.00 0.00 38 1008.2
20260506130659 78 0.0 0.0 0.00 0.00 0.00 39 1008.3
20260506125659 78 0.0 0.0 0.00 0.00 0.00 39 1008.3
20260506124659 77 0.0 0.0 0.00 0.00 0.00 39 1008.3
20260506123659 76 0.0 0.0 0.00 0.00 0.00 41 1008.4
20260506122659 75 0.0 0.0 0.00 0.00 0.00 41 1008.4
20260506121659 75 0.0 0.0 0.00 0.00 0.00 41 1008.4
20260506120659 75 0.0 0.0 0.00 0.00 0.00 41 1008.3
20260506115659 75 0.0 0.0 0.00 0.00 0.00 42 1008.4
20260506114659 74 0.0 0.0 0.00 0.00 0.00 43 1008.4
20260506113659 73 0.0 0.0 0.00 0.00 0.00 44 1008.5
20260506112659 73 0.0 0.0 0.00 0.00 0.00 45 1008.5
20260506111659 73 0.0 0.0 0.00 0.00 0.00 45 1008.6
20260506110659 73 0.0 0.0 0.00 0.00 0.00 47 1008.6
20260506105659 73 0.0 0.0 0.00 0.00 0.00 47 1008.6
20260506104659 73 0.0 0.0 0.00 0.00 0.00 48 1008.7
20260506103659 73 0.0 0.0 0.00 0.00 0.00 49 1008.7
20260506102659 72 0.0 0.0 0.00 0.00 0.00 50 1008.8
20260506101659 71 0.0 0.0 0.00 0.00 0.00 51 1008.9
20260506100659 71 0.0 0.0 0.00 0.00 0.00 50 1009.0
20260506095659 70 0.0 0.0 0.00 0.00 0.00 50 1009.0
20260506094659 70 0.0 0.0 0.00 0.00 0.00 51 1008.9
20260506093659 70 0.0 0.0 0.00 0.00 0.00 50 1008.8
20260506092659 70 0.0 0.0 0.00 0.00 0.00 51 1008.8
20260506091659 70 0.0 0.0 0.00 0.00 0.00 51 1008.8
20260506090659 70 0.0 0.0 0.00 0.00 0.00 50 1008.8
20260506085659 70 0.0 0.0 0.00 0.00 0.00 51 1008.7
20260506084659 69 0.0 0.0 0.00 0.00 0.00 53 1008.6
20260506083659 69 0.0 0.0 0.00 0.00 0.00 53 1008.6
20260506082659 68 0.0 0.0 0.00 0.00 0.00 54 1008.5
20260506081658 68 0.0 0.0 0.00 0.00 0.00 54 1008.4
20260506080658 68 0.0 0.0 0.00 0.00 0.00 55 1008.5
20260506072658 67 0.0 0.0 0.00 0.00 0.00 56 1008.5
20260506071658 67 0.0 0.0 0.00 0.00 0.00 56 1008.5
20260506070658 66 0.0 0.0 0.00 0.00 0.00 56 1008.5
20260506061658 65 0.0 0.0 0.00 0.00 0.00 57 1008.1
20260506060658 65 0.0 0.0 0.00 0.00 0.00 57 1008.2
20260506050658 62 0.0 0.0 0.00 0.00 0.00 59 1007.8
20260506044658 61 0.0 0.0 0.00 0.00 0.00 61 1007.7
20260506043658 60 0.0 0.0 0.00 0.00 0.00 62 1007.6
20260506041658 59 0.0 0.0 0.00 0.00 0.00 63 1007.5
20260506040658 59 0.0 0.0 0.00 0.00 0.00 63 1007.3
20260506035658 58 0.0 0.0 0.00 0.00 0.00 63 1007.3
20260506034658 58 0.0 0.0 0.00 0.00 0.00 63 1007.3
20260506033658 58 0.0 0.0 0.00 0.00 0.00 63 1007.3
20260506032658 58 0.0 0.0 0.00 0.00 0.00 64 1007.2
20260506031658 58 0.0 0.0 0.00 0.00 0.00 63 1007.1
20260506030658 58 0.0 0.0 0.00 0.00 0.00 63 1007.1
20260506025658 58 0.0 0.0 0.00 0.00 0.00 63 1007.1
20260506024658 58 0.0 0.0 0.00 0.00 0.00 62 1007.1
20260506023658 58 0.0 0.0 0.00 0.00 0.00 62 1007.1
20260506022658 58 0.0 0.0 0.00 0.00 0.00 61 1007.2
20260506021658 59 0.0 0.0 0.00 0.00 0.00 61 1007.2
20260506020658 59 0.0 0.0 0.00 0.00 0.00 60 1007.2
20260506015658 59 0.0 0.0 0.00 0.00 0.00 60 1007.2
20260506014658 59 0.0 0.0 0.00 0.00 0.00 60 1007.2
20260506013658 59 0.0 0.0 0.00 0.00 0.00 59 1007.2
20260506012658 59 0.0 0.0 0.00 0.00 0.00 59 1007.2
20260506011658 59 0.0 0.0 0.00 0.00 0.00 58 1007.3
20260506010658 59 0.0 0.0 0.00 0.00 0.00 58 1007.2
20260506005658 59 0.0 0.0 0.00 0.00 0.00 58 1007.0
20260506004658 59 0.0 0.0 0.00 0.00 0.00 58 1007.0
20260506003658 59 0.0 0.0 0.00 0.00 0.00 57 1007.1
20260506002658 59 0.0 0.0 0.00 0.00 0.00 57 1007.1
20260506001658 60 0.0 0.0 0.00 0.00 0.00 56 1007.2
20260506000658 60 0.0 0.0 0.00 0.00 0.00 56 1007.3
20260505235658 60 0.0 0.0 0.00 0.00 0.00 55 1007.3
20260505234658 60 0.0 0.0 0.00 0.00 0.00 54 1007.4
20260505233658 60 0.0 0.0 0.00 0.00 0.00 54 1007.4
20260505232658 61 0.0 0.0 0.00 0.00 0.00 53 1007.5
20260505231658 61 0.0 0.0 0.00 0.00 0.00 52 1007.6
20260505230658 61 0.0 0.0 0.00 0.00 0.00 52 1007.6
20260505225658 61 0.0 0.0 0.00 0.00 0.00 51 1007.6
20260505224658 62 0.0 0.0 0.00 0.00 0.00 51 1007.5
20260505223658 62 0.0 0.0 0.00 0.00 0.00 50 1007.6
20260505222658 62 0.0 0.0 0.00 0.00 0.00 50 1007.6
20260505221658 62 0.0 0.0 0.00 0.00 0.00 49 1007.7
20260505220658 62 0.0 0.0 0.00 0.00 0.00 48 1007.8
20260505215658 63 0.0 0.0 0.00 0.00 0.00 48 1007.8
20260505214658 63 0.0 0.0 0.00 0.00 0.00 47 1007.8
20260505213658 63 0.0 0.0 0.00 0.00 0.00 47 1007.8
20260505212658 63 0.0 0.0 0.00 0.00 0.00 46 1007.8
20260505211658 64 0.0 0.0 0.00 0.00 0.00 46 1007.8
20260505210658 64 0.0 0.0 0.00 0.00 0.00 46 1007.8